Regional Weather Roundup
Issued by NWS Sioux Falls, SD

Home | Current Version | Previous Version | Text Only | Print | Product List | Glossary Off
Versions: 1 2 3 4 5 6 7 8 9 10 11 12 13 14 15 16 17 18 19 20 21 22 23 24 25 26 27 28 29 30 31 32 33 34 35 36 37 38 39 40 41 42 43 44 45 46 47 48 49 50

000
ASUS43 KFSD 262302
RWRFSD

WEATHER ROUNDUP FOR SE SOUTH DAKOTA/SW MINNESOTA/NW IOWA
NATIONAL WEATHER SERVICE SIOUX FALLS SD
500 PM CST FRI DEC 26 2014

NOTE: "FAIR" INDICATES FEW OR NO CLOUDS BELOW 12,000 FEET WITH NO
SIGNIFICANT WEATHER AND OR OBSTRUCTIONS TO VISIBILITY.


SDZ038>040-050-052>070-270000-
SOUTHEAST SOUTH DAKOTA

CITY           SKY/WX    TMP DP  RH WIND       PRES   REMARKS
CHAMBERLAIN    NOT AVBL
HURON          CLOUDY    23  17  78 N14       30.15R WCI  11
MADISON        LGT SNOW  21  21 100 N15G21    30.08R WCI   8
MITCHELL       CLOUDY    24  21  88 N14       30.14R WCI  12
SIOUX FALLS    LGT SNOW  25  22  88 N7        30.09R VSB 1   WCI  17
WINNER         CLOUDY    22  17  81 N10       30.13R WCI  11
YANKTON        CLOUDY    25  21  86 N14       30.10S WCI  13
$$

MNZ071-072-080-081-089-090-097-098-270000-
SOUTHWEST MINNESOTA

CITY           SKY/WX    TMP DP  RH WIND       PRES   REMARKS
FAIRMONT       CLOUDY    30  25  80 N15       30.03R WCI  19
JACKSON        CLOUDY    30  27  86 N10       30.04R WCI  21
LUVERNE        FLURRIES  28  23  80 N9G16     30.08R WCI  20
MARSHALL       CLOUDY    25  19  80 N15       30.08S WCI  12
MONTEVIDEO     CLOUDY    27  23  86 NE12      30.11S WCI  16
PIPESTONE      LGT SNOW  25  21  86 N13       30.05R WCI  13
REDWOOD FALLS  CLOUDY    29  23  78 N12G18    30.07S WCI  19
TRACY          CLOUDY    27  25  91 N12       30.06S WCI  17
WINDOM         CLOUDY    28  27  93 N14       30.03R WCI  17
WORTHINGTON    CLOUDY    27 -20  12 N14       30.05R WCI  15
$$

IAZ001>003-012>014-020>022-031-032-NEZ013-014-SDZ071-270000-
NORTHWEST IOWA

CITY           SKY/WX    TMP DP  RH WIND       PRES   REMARKS
CHEROKEE       CLOUDY    30  29  95 N10       30.03R WCI  21
DENISON        CLOUDY    32  32 100 N13       29.97S WCI  22
ESTHERVILLE    CLOUDY    29  27  92 N17       30.03R WCI  17
LE MARS        CLOUDY    30  27  86 N13G21    30.05F WCI  20
ORANGE CITY    CLOUDY    30  25  80 N8        30.04S WCI  23
SHELDON        MIX PCPN  28  27  93 N16       30.04R WCI  17
SIOUX CITY     CLOUDY    31  26  82 N14       30.05R WCI  21
SPENCER        CLOUDY    30  26  85 N15       30.03R WCI  19
STORM LAKE     CLOUDY    30  28  93 N13G20    30.01S WCI  20
$$

ABBREVIATIONS USED IN REMARKS
   TC - TEMPERATURE IN CELSIUS
  WCI - WIND CHILL INDEX
   HX - HEAT INDEX
  VSB - VISIBILITY



USA.gov is the U.S. government's official web portal to all federal, state and local government web resources and services.